[[{"header":{"parameterUnit":"m.s-1","parameterCategory":1,"la1":30.2991,"la2":30.254,"lo1":-89.0895,"lo2":-89.0444,"dy":0.0017,"dx":0.0017,"nx":28,"ny":28,"refTime":"2024-10-17T21:00:00:Z","depth":0,"parameterNumber":2,"parameterNumberName":"U-component_of_WINDS"},"data":[0,0,0,0,0,0,0,0,0,0,0,0,0,0,0,0,0,0,0,0,0,0,0,0,0,0,0,0,0,0,0,0,0,0,0,0,0,0,0,0,0,0,0,0,0,0,0,0,0,0,0,0,0,0,0,0,0,0,-4.6998,-4.6999,0,-4.7065,-4.7066,-4.7067,-4.691,-4.6905,-4.69,-4.6895,-4.6967,-4.6973,-4.698,0,0,0,0,0,0,0,0,0,0,0,0,0,-4.6737,-4.6742,-4.6998,-4.6999,-4.7,-4.7065,-4.7066,-4.7067,-4.6911,-4.6905,-4.6899,-4.6893,-4.6965,-4.6972,-4.698,0,0,0,0,0,0,0,0,0,0,0,0,0,-4.6832,-4.6744,-4.6998,-4.693,-4.6924,-4.7065,-4.7066,-4.7067,-4.6912,-4.6905,-4.6897,-4.689,-4.6962,-4.6972,-4.6981,-4.7192,0,0,-4.7011,-4.7016,0,0,0,0,0,0,0,0,-4.6827,-4.6842,-4.6939,-4.6935,-4.6929,-4.6971,-4.7,-4.7109,-4.6914,-4.6917,-4.6895,-4.6886,-4.6975,-4.6983,-4.7012,-4.7195,-4.7198,-4.7012,-4.7018,-4.7022,-4.7025,0,0,0,0,0,0,0,-4.682,-4.6838,-4.7024,-4.694,-4.6934,-4.6896,-4.6902,-4.702,-4.6987,-4.6916,-4.6905,-4.6915,-4.697,-4.7003,-4.7013,-4.7199,-4.7012,-4.7021,-4.7027,-4.7031,-4.7559,-4.7567,0,0,0,0,0,0,-4.6822,-4.6833,-4.7022,-4.7026,-4.6858,-4.6907,-4.6913,-4.6965,-4.6985,-4.6981,-4.6921,-4.6907,-4.699,-4.7001,-4.7014,-4.7262,-4.7022,-4.7032,-4.7037,-4.7551,-4.7561,-4.7569,0,0,0,0,0,0,-4.6817,-4.684,-4.702,-4.6927,-4.6947,-4.692,-4.698,-4.6971,-4.7003,-4.6989,-4.6983,-4.696,-4.6984,-4.7001,-4.7149,-4.7263,-4.7036,-4.7045,-4.7541,-4.7554,-4.7565,-4.776,0,0,0,0,0,0,-4.681,-4.684,-4.6919,-4.693,-4.6952,-4.7153,-4.6987,-4.6977,-4.702,-4.7002,-4.7024,-4.702,-4.698,-4.7135,-4.7159,-4.7272,-4.7053,-4.7531,-4.7547,-4.7561,-4.7744,-4.7778,-4.7807,0,0,0,0,0,-4.6801,-4.6972,-4.6924,-4.6947,-4.7051,-4.716,-4.7173,-4.7121,-4.703,-4.711,-4.7101,-4.702,-4.7246,-4.7151,-4.7177,-4.7295,-4.7523,-4.7542,-4.756,-4.773,-4.7771,-4.7806,0,0,0,0,0,0,-4.6976,-4.6972,-4.6919,-4.7097,-4.713,-4.7133,-4.7232,-4.7167,-4.7227,-4.7208,-4.7143,-4.7149,-4.731,-4.7317,-4.7211,-4.75,-4.7369,-4.7394,-4.749,-4.7529,-4.756,-4.7555,-4.7061,0,0,0,0,0,-4.7035,-4.7123,-4.7115,-4.7274,-4.7293,-4.726,-4.7306,-4.7263,-4.7295,-4.7308,-4.731,-4.7344,-4.7422,-4.7476,-4.7548,-4.7744,-4.7746,-4.7837,-4.7869,-4.7895,-4.7917,-4.8022,-4.8062,-4.763,-4.7629,-4.7629,0,0,-4.7158,-4.7167,-4.7227,-4.7309,-4.7329,-4.7422,-4.7273,-4.7378,-4.7446,-4.7324,-4.7464,-4.7467,-4.7501,-4.7674,-4.775,-4.7685,-4.8037,-4.7918,-4.7939,-4.7947,-4.8045,-4.8086,-4.8122,-4.7642,-4.764,-4.7638,0,0,-4.7431,-4.7446,-4.758,-4.7603,-4.7635,-4.7612,-4.7645,-4.7658,-4.7655,-4.7794,-4.7704,-4.7785,-4.7922,-4.795,-4.7982,-4.8265,-4.8193,-4.8291,-4.8456,-4.8559,-4.8593,-4.8623,-4.8724,-4.8762,-4.8312,-4.8313,-4.8313,0,-4.758,-4.7716,-4.7657,-4.7769,-4.7808,-4.77,-4.7835,-4.7861,-4.7916,-4.7945,-4.7871,-4.804,-4.8056,-4.8234,-4.8303,-4.8332,-4.8368,-4.8288,-4.8593,-4.8622,-4.8649,-4.8745,-4.8784,-4.8324,-4.8323,-4.8322,-4.8321,0,-4.7899,-4.7995,-4.8099,-4.8154,-4.8204,-4.8328,-4.8288,-4.8346,-4.83,-4.8285,-4.8428,-4.8443,-4.8515,-4.8554,-4.851,-4.8727,-4.8685,-4.8603,-4.8471,-4.8703,-4.8792,-4.8829,-4.8341,-4.8337,-4.8333,-4.8331,0,0,-4.8284,-4.8303,-4.8343,-4.8366,-4.8394,-4.8467,-4.8586,-4.8656,-4.8708,-4.8749,-4.8847,-4.8965,-4.8889,-4.8926,-4.8884,-4.8974,-4.9198,-4.888,-4.888,-4.8939,-4.9439,-4.9501,-4.9544,-4.915,-4.9157,-4.9162,-4.9436,0,-4.8553,-4.8755,-4.8706,-4.8907,-4.8995,-4.8894,-4.8997,-4.9026,-4.9015,-4.9089,-4.9077,-4.9162,-4.9055,-4.9077,-4.9161,-4.9153,-4.9298,-4.9132,-4.9242,-4.9246,-4.9237,-4.9591,-4.9657,-4.9914,-4.947,-4.9476,-4.948,0,-4.8895,-4.8949,-4.9159,-4.9172,-4.9207,-4.93,-4.9361,-4.9432,-4.9463,-4.9449,-4.949,-4.943,-4.9548,-4.9414,-4.9576,-4.9465,-4.9506,-4.9509,-4.9518,-4.9527,-4.9378,-4.961,-4.9995,-5.0034,-4.9535,-4.953,-4.9526,0,-4.9155,-4.928,-4.9421,-4.9445,-4.9463,-4.9532,-4.9543,-4.9566,-4.9611,-4.9664,-4.9693,-4.976,-4.9797,-4.985,-4.981,-4.9717,-4.9979,-4.9842,-4.9972,-4.9973,-5.0032,-5.0029,-5.043,-5.0059,-5.0058,-5.0057,-5.0056,0,-4.9461,-4.9594,-4.9538,-4.9626,-4.9771,-4.9713,-4.9859,-4.9858,-4.988,-4.9966,-4.9882,-4.9965,-4.9907,-4.9985,-4.9955,-5.0094,-5.0111,-5.0103,-5.0094,-5.0111,-5.0112,-5.0138,-5.0119,-5.0067,-5.0065,-5.0063,-5.0061,0,-4.9777,-4.9745,-4.9893,-4.9898,-4.9903,-5.001,-5.0015,-5.0096,-5.0079,-5.0189,-5.0212,-5.0186,-5.0273,-5.0238,-5.0332,-5.0311,-5.0489,-5.0456,-5.0479,-5.047,-5.0602,-5.0591,-5.1034,-5.109,-5.0683,-5.0686,-5.069,0,-4.9975,-5.0074,-5.009,-5.0141,-5.0158,-5.0242,-5.0288,-5.0234,-5.0286,-5.0328,-5.0405,-5.0485,-5.0546,-5.069,-5.0681,-5.0752,-5.072,-5.087,-5.073,-5.0744,-5.0722,-5.0717,-5.0727,-5.0899,-5.0903,-5.0907,-5.091,0,-5.033,-5.0309,-5.0377,-5.0442,-5.0499,-5.0547,-5.0587,-5.0634,-5.0583,-5.0645,-5.0733,-5.078,-5.0875,-5.0956,-5.1019,-5.103,-5.0964,-5.0955,-5.0988,-5.1007,-5.1017,-5.1014,-5.0556,-5.0945,-5.0941,-5.0939,-5.0937,-5.0936,-5.0592,-5.0676,-5.07,-5.078,-5.0805,-5.0845,-5.0922,-5.0914,-5.0986,-5.1059,-5.1023,-5.1126,-5.1154,-5.1231,-5.1253,-5.1333,-5.1274,-5.1323,-5.1335,-5.1348,-5.1366,-5.1004,-5.1344,-5.1343,-5.1342,-5.1341,-5.134,0,-5.0943,-5.0954,-5.1027,-5.1087,-5.115,-5.1079,-5.1121,-5.1178,-5.1269,-5.1301,-5.1363,-5.1464,-5.1542,-5.1539,-5.1611,-5.1676,-5.1647,-5.1697,-5.1692,-5.1696,-5.1414,-5.1378,-5.1719,-5.1719,-5.1719,-5.1719,-5.1719,-5.1719,-5.1133,-5.1271,-5.1253,-5.1403,-5.1412,-5.1512,-5.1542,-5.1578,-5.1603,-5.172,-5.1784,-5.1781,-5.1799,-5.1871,-5.194,-5.1937,-5.1968,-5.203,-5.2016,-5.1753,-5.1715,-5.168,-5.1645,-5.2037,-5.2038,-5.229,-5.2293,-5.2295]},{"header":{"parameterUnit":"m.s-1","parameterCategory":1,"la1":30.2991,"la2":30.254,"lo1":-89.0895,"lo2":-89.0444,"dy":0.0017,"dx":0.0017,"nx":28,"ny":28,"refTime":"2024-10-17T21:00:00:Z","depth":0,"parameterNumber":3,"parameterNumberName":"V-component_of_WINDS"},"data":[0,0,0,0,0,0,0,0,0,0,0,0,0,0,0,0,0,0,0,0,0,0,0,0,0,0,0,0,0,0,0,0,0,0,0,0,0,0,0,0,0,0,0,0,0,0,0,0,0,0,0,0,0,0,0,0,0,0,-4.1311,-4.1311,0,-4.1292,-4.1292,-4.1291,-4.1214,-4.1213,-4.1211,-4.1209,-4.1189,-4.119,-4.1191,0,0,0,0,0,0,0,0,0,0,0,0,0,-4.1279,-4.128,-4.1311,-4.1311,-4.131,-4.1292,-4.1292,-4.1291,-4.1215,-4.1213,-4.121,-4.1208,-4.1189,-4.119,-4.1192,0,0,0,0,0,0,0,0,0,0,0,0,0,-4.128,-4.128,-4.1311,-4.127,-4.1266,-4.1292,-4.1292,-4.1291,-4.1215,-4.1213,-4.121,-4.1207,-4.1188,-4.119,-4.1192,-4.1255,0,0,-4.1197,-4.1198,0,0,0,0,0,0,0,0,-4.128,-4.1281,-4.1276,-4.1273,-4.1269,-4.1253,-4.1273,-4.1279,-4.1216,-4.1235,-4.1209,-4.1206,-4.1213,-4.1212,-4.1214,-4.1255,-4.1254,-4.1197,-4.1198,-4.1199,-4.1199,0,0,0,0,0,0,0,-4.128,-4.1281,-4.1303,-4.1276,-4.1272,-4.1252,-4.1249,-4.1274,-4.1239,-4.1233,-4.1227,-4.1226,-4.121,-4.1213,-4.1213,-4.1253,-4.1197,-4.1199,-4.12,-4.12,-4.1341,-4.1344,0,0,0,0,0,0,-4.1286,-4.1282,-4.1304,-4.1303,-4.1268,-4.1255,-4.1251,-4.1261,-4.1238,-4.1232,-4.1228,-4.1222,-4.1211,-4.1211,-4.1212,-4.1283,-4.1199,-4.12,-4.1201,-4.1339,-4.1342,-4.1345,0,0,0,0,0,0,-4.1285,-4.1288,-4.1305,-4.1291,-4.1291,-4.1258,-4.1269,-4.1262,-4.1264,-4.1235,-4.1228,-4.1238,-4.1209,-4.121,-4.1245,-4.1281,-4.1201,-4.1203,-4.1336,-4.134,-4.1344,-4.1427,0,0,0,0,0,0,-4.1285,-4.1289,-4.1313,-4.1292,-4.1292,-4.1338,-4.1271,-4.1263,-4.1268,-4.126,-4.1242,-4.1237,-4.1207,-4.1242,-4.1246,-4.1282,-4.1204,-4.1332,-4.1337,-4.1342,-4.1421,-4.1433,-4.1444,0,0,0,0,0,-4.1284,-4.1338,-4.1315,-4.1318,-4.1322,-4.1341,-4.1341,-4.1306,-4.1271,-4.1295,-4.1275,-4.1237,-4.1277,-4.1247,-4.125,-4.1287,-4.133,-4.1336,-4.1342,-4.1416,-4.1431,-4.1444,0,0,0,0,0,0,-4.1365,-4.1335,-4.1309,-4.1358,-4.1352,-4.1328,-4.1357,-4.1324,-4.1329,-4.1321,-4.1278,-4.1274,-4.1315,-4.1305,-4.1271,-4.1346,-4.1297,-4.1304,-4.1351,-4.1366,-4.1377,-4.1379,-4.1205,0,0,0,0,0,-4.1389,-4.1407,-4.1379,-4.1425,-4.1423,-4.1391,-4.1398,-4.1371,-4.1364,-4.1361,-4.1344,-4.1338,-4.1349,-4.1357,-4.1365,-4.1419,-4.1413,-4.1446,-4.1458,-4.1468,-4.1474,-4.1499,-4.1513,-4.1365,-4.1365,-4.1365,0,0,-4.1438,-4.1424,-4.1438,-4.1441,-4.1434,-4.1452,-4.1389,-4.1412,-4.1425,-4.1364,-4.1395,-4.1383,-4.1373,-4.1417,-4.1435,-4.141,-4.1513,-4.1476,-4.1484,-4.1485,-4.1507,-4.1521,-4.1533,-4.1369,-4.1369,-4.1368,0,0,-4.1537,-4.1529,-4.1565,-4.1558,-4.1547,-4.1525,-4.1534,-4.1513,-4.1502,-4.1533,-4.1487,-4.1501,-4.1522,-4.1516,-4.1515,-4.1609,-4.1573,-4.1613,-4.1674,-4.1699,-4.1711,-4.1721,-4.1752,-4.1765,-4.162,-4.162,-4.162,0,-4.1599,-4.1626,-4.1587,-4.1612,-4.1614,-4.1559,-4.1595,-4.159,-4.1583,-4.1585,-4.1557,-4.1579,-4.1569,-4.1609,-4.1632,-4.1634,-4.1641,-4.1615,-4.1712,-4.1722,-4.1731,-4.176,-4.1773,-4.1625,-4.1624,-4.1624,-4.1623,0,-4.1702,-4.1721,-4.1751,-4.1744,-4.175,-4.178,-4.1745,-4.1755,-4.1727,-4.1708,-4.1738,-4.1724,-4.1727,-4.1735,-4.1709,-4.1771,-4.1755,-4.172,-4.1669,-4.175,-4.1777,-4.1788,-4.1632,-4.163,-4.1629,-4.1627,0,0,-4.1852,-4.1823,-4.1834,-4.1829,-4.1813,-4.1826,-4.1853,-4.1856,-4.1864,-4.186,-4.1881,-4.1898,-4.1865,-4.1864,-4.1837,-4.1859,-4.1932,-4.1821,-4.182,-4.1841,-4.1996,-4.2022,-4.2036,-4.1908,-4.191,-4.1912,-4.1997,0,-4.1945,-4.1989,-4.1954,-4.2004,-4.2019,-4.1967,-4.199,-4.1981,-4.1963,-4.1973,-4.1952,-4.1964,-4.1921,-4.192,-4.194,-4.1919,-4.1962,-4.1912,-4.1925,-4.1926,-4.1928,-4.205,-4.2077,-4.2158,-4.2007,-4.2009,-4.201,0,-4.2059,-4.2059,-4.2111,-4.2088,-4.2093,-4.2115,-4.2113,-4.2124,-4.2112,-4.2097,-4.2096,-4.2061,-4.2084,-4.2035,-4.2065,-4.2032,-4.2035,-4.2026,-4.2028,-4.2027,-4.1972,-4.2051,-4.2184,-4.2195,-4.2027,-4.2025,-4.2024,0,-4.2161,-4.2175,-4.2206,-4.2204,-4.2179,-4.2195,-4.2185,-4.2171,-4.2174,-4.2173,-4.2174,-4.2175,-4.2176,-4.2178,-4.2144,-4.2112,-4.2178,-4.2126,-4.2165,-4.2166,-4.2181,-4.218,-4.2314,-4.2185,-4.2185,-4.2185,-4.2184,0,-4.2267,-4.23,-4.2251,-4.2271,-4.2306,-4.2265,-4.23,-4.2284,-4.2272,-4.2286,-4.2241,-4.2256,-4.2211,-4.2221,-4.2195,-4.2222,-4.2224,-4.2211,-4.2203,-4.2214,-4.2216,-4.2215,-4.2208,-4.2188,-4.2187,-4.2186,-4.2186,0,-4.2387,-4.2356,-4.2387,-4.236,-4.2354,-4.238,-4.2357,-4.2373,-4.2351,-4.237,-4.2372,-4.2337,-4.2346,-4.2313,-4.2316,-4.2298,-4.2339,-4.2323,-4.2343,-4.2337,-4.2377,-4.2373,-4.2515,-4.253,-4.2393,-4.2394,-4.2395,0,-4.2457,-4.2481,-4.2456,-4.2462,-4.2454,-4.2465,-4.2468,-4.2428,-4.2432,-4.2419,-4.2437,-4.2441,-4.2443,-4.2459,-4.2434,-4.2435,-4.2418,-4.2467,-4.2418,-4.2427,-4.2416,-4.2415,-4.2416,-4.2477,-4.2479,-4.248,-4.2481,0,-4.2583,-4.2565,-4.257,-4.257,-4.2574,-4.2572,-4.2566,-4.2574,-4.253,-4.2537,-4.2545,-4.2546,-4.2548,-4.2553,-4.2549,-4.2538,-4.2502,-4.2497,-4.2506,-4.2517,-4.2527,-4.252,-4.2369,-4.2494,-4.2493,-4.2492,-4.2491,-4.2491,-4.2678,-4.2696,-4.268,-4.2687,-4.2678,-4.2674,-4.2687,-4.2666,-4.2671,-4.267,-4.2646,-4.2658,-4.2643,-4.2634,-4.2626,-4.2634,-4.2611,-4.2624,-4.2627,-4.2631,-4.2637,-4.2526,-4.2634,-4.2633,-4.2633,-4.2633,-4.2632,0,-4.28,-4.2787,-4.2793,-4.2786,-4.2791,-4.2757,-4.2748,-4.2754,-4.2765,-4.2755,-4.2757,-4.2764,-4.2768,-4.2743,-4.2742,-4.2754,-4.2737,-4.2755,-4.2753,-4.2751,-4.2659,-4.265,-4.2768,-4.2768,-4.2768,-4.2768,-4.2768,-4.2768,-4.2864,-4.2891,-4.2872,-4.2894,-4.288,-4.2891,-4.2889,-4.2884,-4.2875,-4.2885,-4.2888,-4.2871,-4.2854,-4.2851,-4.2853,-4.2845,-4.2846,-4.287,-4.2856,-4.2771,-4.2757,-4.2745,-4.2737,-4.2871,-4.2871,-4.2947,-4.2948,-4.2948]}]]